Weather History for Eagle River, WI

Change the Weather History Date:

Wednesday, November 21, 2012

  Actual Average Record
Temperature  
Mean Temperature 38 °F -  
Max Temperature 51 °F 34 °F 51 °F (1999)
Min Temperature 24 °F 21 °F 0 °F (2008)
Degree Days  
Heating Degree Days 28    
Moisture  
Dew Point 33 °F    
Average Humidity 85    
Maximum Humidity 100    
Minimum Humidity 50    
Precipitation  
Precipitation 0.00 in - - ()
Sea Level Pressure  
Sea Level Pressure 29.95 in    
Wind  
Wind Speed 2 mph (SSW)    
Max Wind Speed 13 mph    
Max Gust Speed 17 mph    
Visibility 6 miles    
Events Fog    
Averages and records for this station are not official NWS values.
T = Trace of Precipitation, MM = Missing Value Source: NWS Daily Summary

Daily Weather History Graph

Daily Weather History Graph

Search for Another Location

Airport:

Trip Planner

Search our weather history database for the weather conditions in past years. The results will help you decide how hot, cold, wet, or windy it might be!

Date:

Astronomy

Nov. 21, 2012 Rise Set
Actual Time 7:06 AM CST 4:19 PM CST
Civil Twilight 6:33 AM CST 4:52 PM CST
Nautical Twilight 5:56 AM CST 5:29 PM CST
Astronomical Twilight 5:21 AM CST 6:04 PM CST
Moon 12:54 PM CST (11/21) 12:05 AM CST (11/21)
Length of Visible Light 10h 19m
Length of Day
9h 13m
First Quarter, 62% of the Moon is Illuminated
Nov 21
First Quarter
Nov 28
Full
Dec 6
Last Quarter
Dec 13
New
Dec 19
First Quarter

Hourly Weather History & Observations

Time (CST) Temp. Windchill Dew Point Humidity Pressure Visibility Wind Dir Wind Speed Gust Speed Precip Events Conditions
12:15 AM 26.6 °F - 26.6 °F 100% 30.09 in 3.0 mi Calm Calm - N/A   Clear
12:35 AM 28.4 °F - 28.4 °F 100% 30.08 in 0.2 mi Calm Calm - N/A Fog Light Freezing Fog
12:55 AM 28.4 °F - 28.4 °F 100% 30.09 in 0.2 mi Calm Calm - N/A Fog Light Freezing Fog
1:15 AM 26.6 °F - 26.6 °F 100% 30.09 in 0.2 mi Calm Calm - N/A Fog Light Freezing Fog
1:35 AM 26.6 °F - 26.6 °F 100% 30.08 in 0.2 mi Calm Calm - N/A Fog Light Freezing Fog
1:55 AM 26.6 °F - 26.6 °F 100% 30.07 in 0.2 mi Calm Calm - N/A Fog Light Freezing Fog
2:15 AM 26.6 °F - 26.6 °F 100% 30.07 in 1.0 mi Calm Calm - N/A   Mostly Cloudy
2:35 AM 26.6 °F - 26.6 °F 100% 30.07 in 0.2 mi Calm Calm - N/A Fog Light Freezing Fog
2:55 AM 24.8 °F - 24.8 °F 100% 30.06 in 2.5 mi Calm Calm - N/A   Scattered Clouds
3:15 AM 24.8 °F - 24.8 °F 100% 30.06 in 0.2 mi Calm Calm - N/A Fog Light Freezing Fog
3:35 AM 26.6 °F - 26.6 °F 100% 30.06 in 0.2 mi Calm Calm - N/A Fog Light Freezing Fog
3:55 AM 24.8 °F - 24.8 °F 100% 30.06 in 0.2 mi Calm Calm - N/A Fog Light Freezing Fog
4:15 AM 26.6 °F - 26.6 °F 100% 30.06 in 1.2 mi Calm Calm - N/A   Scattered Clouds
4:35 AM 28.4 °F - 28.4 °F 100% 30.06 in 1.2 mi Calm Calm - N/A   Mist
5:15 AM 30.2 °F - 30.2 °F 100% 30.05 in 0.8 mi Calm Calm - N/A   Mist
5:35 AM 30.2 °F - 30.2 °F 100% 30.04 in 1.0 mi Calm Calm - N/A   Mist
5:55 AM 30.2 °F - 30.2 °F 100% 30.04 in 0.8 mi Calm Calm - N/A   Mist
6:15 AM 32.0 °F - 32.0 °F 100% 30.04 in 0.5 mi Calm Calm - N/A Fog Light Freezing Fog
6:35 AM 30.2 °F 26.7 °F 30.2 °F 100% 30.03 in 0.5 mi SSE 3.5 mph - N/A Fog Light Freezing Fog
6:55 AM 32.0 °F - 32.0 °F 100% 30.02 in 0.5 mi Calm Calm - N/A Fog Fog
7:15 AM 32.0 °F 28.7 °F 32.0 °F 100% 30.02 in 0.5 mi SSE 3.5 mph - N/A Fog Fog
7:35 AM 32.0 °F 28.7 °F 32.0 °F 100% 30.03 in 0.2 mi South 3.5 mph - N/A Fog Fog
7:55 AM 32.0 °F 28.7 °F 32.0 °F 100% 30.02 in 0.5 mi South 3.5 mph - N/A Fog Fog
8:15 AM 32.0 °F 27.5 °F 32.0 °F 100% 30.01 in 1.2 mi South 4.6 mph - N/A   Scattered Clouds
8:35 AM 35.6 °F 32.8 °F 35.6 °F 100% 30.01 in 1.8 mi South 3.5 mph - N/A   Mist
8:55 AM 37.4 °F 34.9 °F 37.4 °F 100% 30.00 in 3.0 mi SSW 3.5 mph - N/A   Clear
9:15 AM 41.0 °F 36.4 °F 41.0 °F 100% 30.00 in 5.0 mi SSW 6.9 mph - N/A   Clear
9:35 AM 41.0 °F 38.0 °F 39.2 °F 93% 29.99 in 7.0 mi SSW 4.6 mph - N/A   Clear
9:55 AM 42.8 °F 38.6 °F 39.2 °F 87% 29.99 in 10.0 mi SSW 6.9 mph - N/A   Clear
10:15 AM 44.6 °F 40.7 °F 35.6 °F 71% 29.97 in 10.0 mi South 6.9 mph - N/A   Clear
10:35 AM 46.4 °F 42.9 °F 35.6 °F 66% 29.97 in 10.0 mi SW 6.9 mph - N/A   Clear
10:55 AM 46.4 °F 42.4 °F 35.6 °F 66% 29.96 in 10.0 mi SW 8.1 mph - N/A   Clear
11:15 AM 50.0 °F - 35.6 °F 58% 29.95 in 10.0 mi SW 10.4 mph - N/A   Clear
11:35 AM 50.0 °F - 35.6 °F 58% 29.94 in 10.0 mi SW 8.1 mph - N/A   Clear
11:55 AM 50.0 °F - 33.8 °F 54% 29.94 in 10.0 mi SW 8.1 mph 17.3 mph N/A   Clear
12:15 PM 51.8 °F - 33.8 °F 50% 29.93 in 10.0 mi SW 11.5 mph - N/A   Clear
12:35 PM 51.8 °F - 33.8 °F 50% 29.92 in 10.0 mi SSW 8.1 mph 16.1 mph N/A   Clear
12:55 PM 51.8 °F - 33.8 °F 50% 29.91 in 10.0 mi SW 12.7 mph 17.3 mph N/A   Clear
1:15 PM 50.0 °F - 33.8 °F 54% 29.91 in 10.0 mi SW 10.4 mph - N/A   Clear
1:35 PM 50.0 °F - 33.8 °F 54% 29.91 in 10.0 mi WSW 10.4 mph - N/A   Clear
1:55 PM 50.0 °F - 35.6 °F 58% 29.91 in 10.0 mi SW 8.1 mph - N/A   Clear
2:15 PM 50.0 °F - 35.6 °F 58% 29.91 in 10.0 mi WSW 5.8 mph - N/A   Clear
2:35 PM 50.0 °F - 35.6 °F 58% 29.91 in 10.0 mi SSW 4.6 mph - N/A   Clear
2:55 PM 50.0 °F - 35.6 °F 58% 29.91 in 10.0 mi SSW 4.6 mph - N/A   Clear
3:15 PM 48.2 °F - 35.6 °F 62% 29.91 in 10.0 mi SSW 4.6 mph - N/A   Clear
3:35 PM 48.2 °F - 35.6 °F 62% 29.91 in 10.0 mi SW 5.8 mph - N/A   Clear
3:55 PM 46.4 °F - 35.6 °F 66% 29.91 in 10.0 mi Calm Calm - N/A   Clear
4:15 PM 46.4 °F - 35.6 °F 66% 29.91 in 10.0 mi Calm Calm - N/A   Clear
4:35 PM 46.4 °F 45.2 °F 35.6 °F 66% 29.90 in 10.0 mi South 3.5 mph - N/A   Clear
4:55 PM 44.6 °F 42.2 °F 35.6 °F 71% 29.90 in 10.0 mi South 4.6 mph - N/A   Clear
5:15 PM 44.6 °F 42.2 °F 35.6 °F 71% 29.90 in 10.0 mi South 4.6 mph - N/A   Clear
5:35 PM 44.6 °F 42.2 °F 35.6 °F 71% 29.90 in 10.0 mi South 4.6 mph - N/A   Clear
5:55 PM 42.8 °F 41.1 °F 35.6 °F 76% 29.89 in 10.0 mi South 3.5 mph - N/A   Clear
6:15 PM 41.0 °F - 35.6 °F 81% 29.89 in 10.0 mi Calm Calm - N/A   Clear
6:35 PM 39.2 °F - 33.8 °F 81% 29.88 in 10.0 mi Calm Calm - N/A   Clear
6:55 PM 37.4 °F - 35.6 °F 93% 29.88 in 10.0 mi Calm Calm - N/A   Clear
7:15 PM 35.6 °F - 35.6 °F 100% 29.88 in 7.0 mi Calm Calm - N/A   Clear
7:35 PM 37.4 °F - 37.4 °F 100% 29.88 in 10.0 mi Calm Calm - N/A   Clear
7:55 PM 35.6 °F - 35.6 °F 100% 29.88 in 7.0 mi Calm Calm - N/A   Clear
8:15 PM 37.4 °F - 37.4 °F 100% 29.87 in 10.0 mi Calm Calm - N/A   Clear
8:35 PM 35.6 °F - 35.6 °F 100% 29.86 in 5.0 mi Calm Calm - N/A   Clear
8:55 PM 33.8 °F - 33.8 °F 100% 29.86 in 3.0 mi Calm Calm - N/A   Clear
9:15 PM 33.8 °F - 33.8 °F 100% 29.85 in 7.0 mi Calm Calm - N/A   Clear
9:35 PM 32.0 °F - 32.0 °F 100% 29.85 in 4.0 mi Calm Calm - N/A   Clear
9:55 PM 33.8 °F - 33.8 °F 100% 29.84 in 4.0 mi Calm Calm - N/A   Clear
10:15 PM 35.6 °F 31.7 °F 35.6 °F 100% 29.84 in 7.0 mi South 4.6 mph - N/A   Clear
10:35 PM 41.0 °F 38.0 °F 41.0 °F 100% 29.84 in 10.0 mi South 4.6 mph - N/A   Clear
10:55 PM 42.8 °F 40.1 °F 41.0 °F 93% 29.84 in 10.0 mi South 4.6 mph - N/A   Clear
11:15 PM 44.6 °F 41.4 °F 41.0 °F 87% 29.83 in 10.0 mi SSW 5.8 mph - N/A   Clear
11:35 PM 46.4 °F 43.5 °F 39.2 °F 76% 29.83 in 10.0 mi SW 5.8 mph - N/A   Clear
11:55 PM 46.4 °F 42.4 °F 39.2 °F 76% 29.82 in 10.0 mi SSW 8.1 mph - N/A   Clear